FW8726 Weather Reports


time (UTC)temp
C
wind
direction
speed
KPH
gust
KPH
rain 1hr
cm
rain 24hr
cm
rain mn
cm
humidity
%
barometer
mb
20260505193133 25 197 4.8 16.1 0.00 0.00 0.00 50 1009.9
20260505192632 25 144 0.0 11.3 0.00 0.00 0.00 49 1010.1
20260505192128 25 46 3.2 12.9 0.00 0.00 0.00 50 1010.1
20260505191622 26 187 3.2 14.5 0.00 0.00 0.00 48 1010.1
20260505191119 25 157 4.8 17.7 0.00 0.00 0.00 49 1010.0
20260505190615 25 170 6.4 20.9 0.00 0.00 0.00 50 1010.4
20260505190110 26 159 6.4 16.1 0.00 0.00 0.00 49 1010.5
20260505185607 25 190 12.9 16.1 0.00 0.00 0.00 50 1010.8
20260505185103 25 137 9.7 16.1 0.00 0.00 0.00 51 1010.8
20260505184559 23 181 9.7 20.9 0.00 0.00 0.00 52 1010.8
20260505184056 25 200 3.2 17.7 0.00 0.00 0.00 51 1010.7
20260505183553 25 158 12.9 16.1 0.00 0.00 0.00 50 1011.1
20260505183051 25 147 8.0 22.5 0.00 0.00 0.00 51 1011.0
20260505182547 25 147 6.4 14.5 0.00 0.00 0.00 51 1011.0
20260505182044 25 172 4.8 19.3 0.00 0.00 0.00 50 1011.0
20260505181540 24 183 9.7 14.5 0.00 0.00 0.00 51 1011.0
20260505181038 25 128 4.8 16.1 0.00 0.00 0.00 51 1011.0
20260505180533 24 170 8.0 16.1 0.00 0.00 0.00 51 1011.0
20260505180032 25 100 3.2 19.3 0.00 0.00 0.00 50 1011.0
20260505175532 25 150 4.8 20.9 0.00 0.00 0.00 50 1011.1
20260505175029 25 124 11.3 17.7 0.00 0.00 0.00 49 1011.1
20260505174526 25 149 4.8 17.7 0.00 0.00 0.00 50 1011.2
20260505174022 25 213 6.4 16.1 0.00 0.00 0.00 49 1011.3
20260505173519 26 133 6.4 11.3 0.00 0.00 0.00 48 1011.2
20260505173016 25 99 3.2 14.5 0.00 0.00 0.00 49 1011.3
20260505172514 26 210 3.2 11.3 0.00 0.00 0.00 48 1011.3
20260505172009 26 89 0.0 14.5 0.00 0.00 0.00 47 1011.4
20260505171505 26 159 8.0 17.7 0.00 0.00 0.00 48 1011.3
20260505171002 26 214 4.8 11.3 0.00 0.00 0.00 49 1011.3
20260505170459 25 146 4.8 17.7 0.00 0.00 0.00 49 1011.4
20260505165954 25 104 6.4 16.1 0.00 0.00 0.00 49 1011.6
20260505165450 25 175 3.2 14.5 0.00 0.00 0.00 48 1011.7
20260505164946 25 214 4.8 19.3 0.00 0.00 0.00 48 1011.7
20260505164442 26 151 6.4 12.9 0.00 0.00 0.00 47 1011.6
20260505163940 26 169 8.0 12.9 0.00 0.00 0.00 46 1011.6
20260505163439 26 152 6.4 8.0 0.00 0.00 0.00 45 1011.7
20260505162938 25 164 3.2 17.7 0.00 0.00 0.00 47 1012.0
20260505162433 25 113 4.8 14.5 0.00 0.00 0.00 46 1011.8
20260505161930 26 191 6.4 14.5 0.00 0.00 0.00 46 1012.1
20260505161427 25 283 4.8 14.5 0.00 0.00 0.00 46 1011.9
20260505160924 25 191 3.2 8.0 0.00 0.00 0.00 48 1012.0
20260505160423 25 137 6.4 16.1 0.00 0.00 0.00 49 1012.0
20260505152858 25 253 6.4 12.9 0.00 0.00 0.00 47 1012.3
20260505152355 25 135 6.4 14.5 0.00 0.00 0.00 47 1012.3
20260505151849 25 179 9.7 17.7 0.00 0.00 0.00 47 1012.4
20260505151347 24 193 6.4 20.9 0.00 0.00 0.00 50 1012.8
20260505150843 24 276 3.2 11.3 0.00 0.00 0.00 50 1012.8
20260505150340 24 154 9.7 11.3 0.00 0.00 0.00 50 1012.8
20260505140305 21 213 4.8 16.1 0.00 0.00 0.00 58 1013.1
20260505130229 20 353 1.6 12.9 0.00 0.00 0.00 62 1012.7
20260505124719 20 269 8.0 12.9 0.00 0.00 0.00 59 1012.5
20260505124216 20 151 8.0 12.9 0.00 0.00 0.00 60 1012.5
20260505123711 20 282 3.2 16.1 0.00 0.00 0.00 59 1012.5
20260505123209 20 275 6.4 24.1 0.00 0.00 0.00 59 1012.7
20260505122705 20 269 6.4 11.3 0.00 0.00 0.00 61 1012.5
20260505122202 20 308 3.2 19.3 0.00 0.00 0.00 61 1012.5
20260505121659 20 286 0.0 12.9 0.00 0.00 0.00 61 1012.6
20260505121155 20 263 3.2 8.0 0.00 0.00 0.00 61 1012.6
20260505120651 20 256 1.6 4.8 0.00 0.00 0.00 63 1012.4
20260505120147 19 230 6.4 8.0 0.00 0.00 0.00 64 1012.6
20260505115641 19 111 3.2 6.4 0.00 0.00 0.00 64 1012.6
20260505115139 18 213 3.2 8.0 0.00 0.00 0.00 63 1012.8
20260505114636 18 125 1.6 11.3 0.00 0.00 0.00 65 1012.4
20260505114132 18 309 3.2 8.0 0.00 0.00 0.00 65 1012.6
20260505113629 18 309 1.6 11.3 0.00 0.00 0.00 66 1012.8
20260505113126 17 273 3.2 14.5 0.00 0.00 0.00 67 1012.6
20260505112622 17 272 1.6 9.7 0.00 0.00 0.00 69 1012.7
20260505112120 17 261 1.6 12.9 0.00 0.00 0.00 70 1012.8
20260505111614 17 212 0.0 6.4 0.00 0.00 0.00 71 1012.5
20260505111110 16 254 0.0 4.8 0.00 0.00 0.00 72 1012.6
20260505110607 16 300 4.8 8.0 0.00 0.00 0.00 74 1012.7
20260505110104 15 247 1.6 9.7 0.00 0.00 0.00 75 1012.6
20260505102039 15 307 4.8 12.9 0.00 0.00 0.00 77 1012.8
20260505101537 15 291 3.2 8.0 0.00 0.00 0.00 77 1012.7
20260505101033 15 268 4.8 9.7 0.00 0.00 0.00 78 1012.6
20260505100531 14 277 4.8 8.0 0.00 0.00 0.00 79 1012.2
20260505100027 14 150 4.8 8.0 0.00 0.00 0.00 78 1012.1
20260505095524 14 191 3.2 4.8 0.00 0.00 0.00 78 1011.9
20260505095020 14 353 0.0 3.2 0.00 0.00 0.00 78 1012.0
20260505094517 15 161 4.8 9.7 0.00 0.00 0.00 77 1011.8
20260505094013 15 210 4.8 9.7 0.00 0.00 0.00 77 1011.8
20260505093509 15 136 3.2 4.8 0.00 0.00 0.00 77 1011.4
20260505093007 15 162 3.2 8.0 0.00 0.00 0.00 77 1011.7
20260505092504 14 197 4.8 6.4 0.00 0.00 0.00 77 1011.7
20260505092002 14 172 4.8 11.3 0.00 0.00 0.00 78 1011.8
20260505091459 14 131 3.2 9.7 0.00 0.00 0.00 78 1011.8
20260505090957 14 292 1.6 9.7 0.00 0.00 0.00 78 1011.7
20260505090455 13 281 0.0 4.8 0.00 0.00 0.00 79 1011.8
20260505085952 13 119 0.0 3.2 0.00 0.00 0.00 79 1011.7
20260505085450 13 118 0.0 3.2 0.00 0.00 0.00 79 1011.7
20260505084948 13 309 0.0 4.8 0.00 0.00 0.00 78 1012.0
20260505084446 14 180 0.0 4.8 0.00 0.00 0.00 78 1011.8
20260505083943 14 136 3.2 3.2 0.00 0.00 0.00 77 1011.8
20260505083440 14 204 3.2 4.8 0.00 0.00 0.00 77 1011.6
20260505082937 14 56 0.0 6.4 0.00 0.00 0.00 76 1011.8
20260505082432 15 127 4.8 6.4 0.00 0.00 0.00 76 1011.8
20260505081930 15 122 3.2 9.7 0.00 0.00 0.00 75 1011.6
20260505081427 15 263 3.2 12.9 0.00 0.00 0.00 75 1011.6
20260505080923 15 122 3.2 14.5 0.00 0.00 0.00 76 1011.7
20260505080419 14 183 0.0 6.4 0.00 0.00 0.00 77 1011.6
20260505075915 14 315 0.0 4.8 0.00 0.00 0.00 77 1011.8
20260505075412 14 158 0.0 4.8 0.00 0.00 0.00 78 1011.8
20260505074909 13 152 0.0 4.8 0.00 0.00 0.00 78 1011.6
20260505074406 13 229 1.6 8.0 0.00 0.00 0.00 79 1011.9
20260505073903 13 255 0.0 3.2 0.00 0.00 0.00 80 1011.7
20260505073401 13 93 0.0 8.0 0.00 0.00 0.00 81 1011.5
20260505072858 12 307 0.0 4.8 0.00 0.00 0.00 84 1011.6
20260505072354 12 104 0.0 1.6 0.00 0.00 0.00 84 1011.7
20260505071850 12 135 1.6 4.8 0.00 0.00 0.00 84 1011.6
20260505071347 12 128 1.6 3.2 0.00 0.00 0.00 83 1011.6
20260505070845 12 62 0.0 3.2 0.00 0.00 0.00 82 1011.6
20260505070341 13 119 0.0 4.8 0.00 0.00 0.00 82 1011.6
20260505065836 12 145 3.2 4.8 0.00 0.00 0.00 82 1011.7
20260505065334 12 140 1.6 3.2 0.00 0.00 0.00 82 1011.7
20260505064831 12 124 0.0 3.2 0.00 0.00 0.00 81 1011.7
20260505064327 13 107 3.2 3.2 0.00 0.00 0.00 81 1011.7
20260505063826 13 105 1.6 3.2 0.00 0.00 0.00 80 1011.6
20260505063321 13 52 0.0 3.2 0.00 0.00 0.00 80 1011.9
20260505062818 13 89 1.6 3.2 0.00 0.00 0.00 79 1011.8
20260505062316 13 130 0.0 4.8 0.00 0.00 0.00 78 1011.7
20260505061812 13 128 1.6 3.2 0.00 0.00 0.00 78 1011.8
20260505061311 13 113 1.6 4.8 0.00 0.00 0.00 77 1011.7
20260505060808 13 118 0.0 3.2 0.00 0.00 0.00 76 1011.7
20260505060304 14 137 3.2 9.7 0.00 0.00 0.00 75 1011.8
20260505055800 14 171 3.2 4.8 0.00 0.00 0.00 75 1011.8
20260505055256 14 109 3.2 6.4 0.00 0.00 0.00 74 1011.7
20260505054754 14 180 0.0 4.8 0.00 0.00 0.00 74 1011.9
20260505054251 14 165 4.8 8.0 0.00 0.00 0.00 74 1011.9
20260505053749 14 64 1.6 4.8 0.00 0.00 0.00 74 1012.0
20260505053246 14 135 3.2 4.8 0.00 0.00 0.00 73 1012.0
20260505052743 14 188 3.2 9.7 0.00 0.00 0.00 72 1011.8
20260505052240 14 149 3.2 9.7 0.00 0.00 0.00 72 1012.0
20260505051737 15 159 4.8 11.3 0.00 0.00 0.00 71 1012.1
20260505051235 15 147 4.8 11.3 0.00 0.00 0.00 71 1012.0
20260505050732 15 182 4.8 8.0 0.00 0.00 0.00 70 1011.9
20260505050231 15 173 4.8 16.1 0.00 0.00 0.00 69 1012.0
20260505041700 16 165 6.4 12.9 0.00 0.00 0.00 65 1012.3
20260505041158 16 182 6.4 19.3 0.00 0.00 0.00 64 1012.3
20260505040655 16 177 9.7 20.9 0.00 0.00 0.00 64 1012.3
20260505040152 16 189 11.3 14.5 0.00 0.00 0.00 64 1012.5
20260505035648 16 166 8.0 20.9 0.00 0.00 0.00 64 1012.2
20260505035144 16 197 6.4 17.7 0.00 0.00 0.00 64 1012.3
20260505034641 16 210 6.4 14.5 0.00 0.00 0.00 64 1012.6
20260505034139 16 151 16.1 19.3 0.00 0.00 0.00 64 1012.5
20260505033635 16 172 8.0 16.1 0.00 0.00 0.00 64 1012.5
20260505033133 16 152 8.0 16.1 0.00 0.00 0.00 63 1012.5
20260505032631 16 165 6.4 20.9 0.00 0.00 0.00 63 1012.3
20260505032127 16 158 6.4 11.3 0.00 0.00 0.00 62 1012.4
20260505031624 16 198 8.0 16.1 0.00 0.00 0.00 61 1012.3
20260505031120 16 178 8.0 20.9 0.00 0.00 0.00 61 1012.4
20260505030618 16 174 4.8 17.7 0.00 0.00 0.00 60 1012.5
20260505030113 16 137 6.4 16.1 0.00 0.00 0.00 60 1012.4
20260505025609 16 219 8.0 14.5 0.00 0.00 0.00 59 1012.7
20260505025108 16 178 3.2 9.7 0.00 0.00 0.00 58 1012.7
20260505024605 16 178 8.0 24.1 0.00 0.00 0.00 58 1012.6
20260505024103 16 179 9.7 12.9 0.00 0.00 0.00 57 1012.6
20260505023600 16 187 4.8 17.7 0.00 0.00 0.00 57 1012.7
20260505023057 17 186 4.8 19.3 0.00 0.00 0.00 56 1012.7
20260505022554 17 192 6.4 16.1 0.00 0.00 0.00 56 1012.7
20260505022051 17 180 4.8 16.1 0.00 0.00 0.00 56 1012.9
20260505021548 17 161 8.0 20.9 0.00 0.00 0.00 56 1012.7
20260505021045 17 157 6.4 16.1 0.00 0.00 0.00 55 1012.8
20260505020544 17 206 4.8 16.1 0.00 0.00 0.00 55 1012.6
20260505020042 17 190 4.8 17.7 0.00 0.00 0.00 55 1012.6
20260505015539 17 191 6.4 14.5 0.00 0.00 0.00 55 1012.6
20260505015035 17 188 6.4 20.9 0.00 0.00 0.00 54 1012.5
20260505014532 17 174 6.4 16.1 0.00 0.00 0.00 54 1012.6
20260505014029 17 250 4.8 16.1 0.00 0.00 0.00 54 1012.8
20260505013527 17 80 3.2 16.1 0.00 0.00 0.00 54 1012.7
20260505013024 17 224 4.8 17.7 0.00 0.00 0.00 54 1012.5
20260505012522 17 173 6.4 20.9 0.00 0.00 0.00 54 1012.6
20260505012019 17 291 0.0 14.5 0.00 0.00 0.00 54 1012.5
20260505011514 17 180 6.4 19.3 0.00 0.00 0.00 53 1012.3
20260505011011 17 226 4.8 14.5 0.00 0.00 0.00 54 1012.2
20260505010507 17 127 6.4 17.7 0.00 0.00 0.00 54 1012.2
20260505010004 18 247 6.4 17.7 0.00 0.00 0.00 54 1012.1
20260505005500 18 180 6.4 16.1 0.00 0.00 0.00 54 1012.0
20260505004958 18 144 4.8 16.1 0.00 0.00 0.00 54 1012.1
20260505004454 18 122 1.6 19.3 0.00 0.00 0.00 54 1012.0
20260505003951 18 161 6.4 24.1 0.00 0.00 0.00 54 1011.8
20260505003448 18 193 3.2 17.7 0.00 0.00 0.00 55 1011.8
20260505002944 18 172 3.2 17.7 0.00 0.00 0.00 57 1011.6
20260505002441 17 218 3.2 14.5 0.00 0.00 0.00 58 1011.9
20260505001939 17 163 8.0 14.5 0.00 0.00 0.00 58 1011.6
20260505001436 17 149 4.8 16.1 0.00 0.00 0.00 58 1011.4
20260505000933 17 133 3.2 14.5 0.00 0.00 0.00 59 1011.6
20260505000432 17 155 8.0 19.3 0.00 0.00 0.00 59 1011.5
20260504235928 17 163 6.4 11.3 0.00 0.00 0.00 60 1011.3
20260504235425 17 180 6.4 17.7 0.00 0.00 0.00 61 1011.2
20260504234921 17 165 3.2 17.7 0.00 0.00 0.00 62 1011.1
20260504234419 17 178 6.4 14.5 0.00 0.00 0.00 62 1011.1
20260504233915 17 167 4.8 14.5 0.00 0.00 0.00 62 1011.0
20260504233411 17 194 4.8 11.3 0.00 0.00 0.00 61 1010.8
20260504232908 17 148 11.3 20.9 0.00 0.00 0.00 62 1010.8
20260504232405 17 136 4.8 9.7 0.00 0.00 0.00 61 1010.9
20260504231902 18 188 6.4 24.1 0.00 0.00 0.00 60 1010.7
20260504231358 18 164 3.2 22.5 0.00 0.00 0.00 60 1010.7
20260504230855 18 112 4.8 12.9 0.00 0.00 0.00 59 1010.7
20260504230352 18 163 6.4 11.3 0.00 0.00 0.00 58 1010.5
20260504225851 18 164 6.4 22.5 0.00 0.00 0.00 59 1010.6
20260504225347 18 151 8.0 14.5 0.00 0.00 0.00 58 1010.7
20260504224844 18 169 9.7 19.3 0.00 0.00 0.00 57 1010.8
20260504224341 18 160 6.4 16.1 0.00 0.00 0.00 57 1010.8
20260504223838 19 145 4.8 8.0 0.00 0.00 0.00 55 1010.7
20260504223333 18 168 8.0 19.3 0.00 0.00 0.00 55 1010.5
20260504222830 19 151 11.3 16.1 0.00 0.00 0.00 54 1010.6
20260504222327 19 176 6.4 11.3 0.00 0.00 0.00 54 1010.7
20260504221826 20 141 4.8 14.5 0.00 0.00 0.00 53 1010.8
20260504221322 20 162 4.8 12.9 0.00 0.00 0.00 53 1010.7
20260504220819 20 146 4.8 12.9 0.00 0.00 0.00 51 1010.9
20260504220316 20 167 3.2 16.1 0.00 0.00 0.00 52 1010.8
20260504215813 20 176 4.8 16.1 0.00 0.00 0.00 52 1010.9
20260504215309 20 114 9.7 19.3 0.00 0.00 0.00 52 1010.8
20260504214805 20 159 8.0 16.1 0.00 0.00 0.00 52 1010.9
20260504214302 20 153 11.3 22.5 0.00 0.00 0.00 52 1010.9
20260504213759 20 201 6.4 11.3 0.00 0.00 0.00 51 1011.2
20260504213255 20 190 8.0 17.7 0.00 0.00 0.00 51 1011.2
20260504212752 20 192 4.8 17.7 0.00 0.00 0.00 51 1011.1
20260504212248 20 172 3.2 11.3 0.00 0.00 0.00 50 1011.1
20260504211746 20 192 4.8 17.7 0.00 0.00 0.00 49 1011.4
20260504211242 21 233 4.8 12.9 0.00 0.00 0.00 48 1011.2
20260504210740 21 248 3.2 12.9 0.00 0.00 0.00 48 1011.1
20260504210237 21 178 9.7 17.7 0.00 0.00 0.00 46 1010.9
20260504205734 21 180 4.8 17.7 0.00 0.00 0.00 45 1011.0
20260504205231 21 216 8.0 14.5 0.00 0.00 0.00 44 1010.9
20260504204730 21 186 4.8 14.5 0.00 0.00 0.00 47 1010.9
20260504204228 21 133 4.8 17.7 0.00 0.00 0.00 46 1011.1
20260504203727 21 147 11.3 22.5 0.00 0.00 0.00 46 1011.1
20260504203224 21 81 0.0 12.9 0.00 0.00 0.00 44 1011.1
20260504202723 22 241 3.2 20.9 0.00 0.00 0.00 42 1010.9
20260504202221 22 216 9.7 19.3 0.00 0.00 0.00 40 1011.1
20260504201718 23 208 12.9 16.1 0.00 0.00 0.00 37 1011.2
20260504201215 23 155 11.3 14.5 0.00 0.00 0.00 34 1011.1
20260504200713 23 244 8.0 19.3 0.00 0.00 0.00 34 1011.2
20260504200209 22 258 3.2 25.7 0.00 0.00 0.00 35 1011.1
20260504195705 22 221 8.0 20.9 0.00 0.00 0.00 34 1011.1
20260504195201 22 153 4.8 12.9 0.00 0.00 0.00 34 1011.2
20260504194658 22 170 11.3 24.1 0.00 0.00 0.00 34 1011.2
20260504194154 23 132 4.8 35.4 0.00 0.00 0.00 34 1011.4
20260504193651 23 295 3.2 20.9 0.00 0.00 0.00 34 1011.5